Home > Weather > Bitterfeld-Wolfen > Past weeks

Flag for Germany Past Weather in Bitterfeld-Wolfen, Saxony-Anhalt, Germany — Yesterday and Last 2 Weeks

Now
63 °F

Clear.


Feels Like: 63 °F
Forecast: 61 / 75 °F
Wind: 5 mph from Northwest

Location: Leipzig-Schkeuditz

Current Time: Jun 25, 2016 at 3:41:01 AM

Latest Report: Jun 25, 2016 at 3:20 AM


Visibility: 10 mi

Pressure: 29.95 "Hg

Humidity: 94%

Dew Point: 61 °F

Location of Bitterfeld-WolfenLocation

Past Weather in Bitterfeld-Wolfen — Graph

°F

Bitterfeld-Wolfen Temperature Yesterday

Maximum temperature yesterday: 93 °F (at 2:50 PM)
Minimum temperature yesterday: 66 °F (at 11:20 PM)
Average temperature yesterday: 79 °F

High & Low Weather Summary for the Past Weeks

 TemperatureHumidityPressure
High93 °F (Jun 24, 2:50 PM)100% (Jun 12, 5:20 AM)30.24 "Hg (Jun 12, 5:20 AM)
Low48 °F (Jun 20, 5:20 AM)27% (Jun 10, 1:50 PM)29.47 "Hg (Jun 14, 4:20 PM)
Average65 °F73%29.88 "Hg
* Reported Jun 10 2:20 AM — Jun 25 2:20 AM, Bitterfeld-Wolfen, Weather by CustomWeather, © 2016

Note: Actual official high and low records may vary slightly from our data, if they occured in-between our weather recording intervals... More about our weather records

Advertising

Bitterfeld-Wolfen Weather History for the Previous 24 Hours

Scroll right to see more
 ConditionsComfort  
Time TempWeatherWind HumidityBarometerVisibility
2:20 AM
Sat, Jun 25
64 °FClear.8 mph88%29.95 "Hg10 mi
1:50 AM64 °FClear.7 mph88%29.98 "Hg10 mi
1:20 AM66 °FClear.8 mph83%29.98 "Hg10 mi
12:50 AM66 °FClear.8 mph83%29.98 "Hg10 mi
12:20 AM66 °FClear.9 mph83%30.01 "Hg10 mi
11:50 PM
Fri, Jun 24
66 °FClear.7 mph83%30.01 "Hg10 mi
11:20 PM66 °FClear.6 mph83%30.01 "Hg10 mi
10:50 PM68 °FPassing clouds.6 mph78%29.98 "HgN/A
10:20 PM70 °FSunny.7 mph73%29.98 "Hg10 mi
9:50 PM70 °FSunny.8 mph73%29.98 "Hg10 mi
9:20 PM72 °FSunny.7 mph65%29.98 "Hg10 mi
8:50 PM73 °FSunny.12 mph61%29.98 "Hg10 mi
8:20 PM77 °FSunny.17 mph54%29.98 "Hg10 mi
7:50 PM84 °FPassing clouds.6 mph45%29.98 "HgN/A
7:20 PM90 °FSunny.6 mph38%29.98 "Hg10 mi
6:50 PM91 °FSunny.8 mph32%29.98 "Hg10 mi
6:20 PM91 °FPassing clouds.9 mph34%29.98 "HgN/A
5:50 PM91 °FSunny.10 mph36%29.98 "Hg10 mi
5:20 PM91 °FPassing clouds.9 mph36%29.98 "HgN/A
4:50 PM91 °FPassing clouds.9 mph38%29.98 "HgN/A
4:20 PM91 °FPassing clouds.8 mph30%29.98 "HgN/A
3:50 PM93 °FPassing clouds.8 mph32%29.98 "HgN/A
3:20 PM93 °FPassing clouds.7 mph30%30.01 "HgN/A
2:50 PM93 °FPassing clouds.6 mph30%30.01 "HgN/A
2:20 PM91 °FPassing clouds.7 mph36%30.01 "HgN/A
1:50 PM91 °FPassing clouds.5 mph38%30.04 "HgN/A
1:20 PM90 °FSunny.3 mph43%30.04 "Hg10 mi
12:50 PM90 °FPassing clouds.5 mph43%30.04 "HgN/A
12:20 PM88 °FSunny.3 mph46%30.04 "Hg10 mi
11:50 AM88 °FPassing clouds.6 mph46%30.07 "HgN/A
11:20 AM88 °FSunny.5 mph46%30.07 "Hg10 mi
10:50 AM84 °FPassing clouds.7 mph51%30.04 "HgN/A
10:20 AM84 °FPassing clouds.8 mph51%30.04 "HgN/A
9:50 AM82 °FPassing clouds.12 mph55%30.07 "HgN/A
9:20 AM81 °FPassing clouds.9 mph54%30.07 "HgN/A
8:50 AM81 °FPassing clouds.7 mph62%30.07 "HgN/A
8:20 AM77 °FSunny.2 mph65%30.07 "Hg10 mi
7:50 AM73 °FPassing clouds.5 mph69%30.07 "HgN/A
7:20 AM75 °FSunny.1 mph65%30.07 "Hg10 mi
6:50 AM72 °FPassing clouds.3 mph73%30.07 "HgN/A
6:20 AM70 °FSunny.6 mph78%30.07 "Hg10 mi
5:50 AM68 °FPassing clouds.5 mph78%30.07 "HgN/A
5:20 AM68 °FClear.10 mph78%30.07 "Hg10 mi
4:50 AM68 °FPassing clouds.9 mph83%30.07 "HgN/A
4:20 AM70 °FPassing clouds.8 mph78%30.07 "HgN/A
3:50 AM70 °FClear.9 mph78%30.07 "Hg10 mi
3:20 AM70 °FClear.9 mph78%30.07 "Hg10 mi
Weather by CustomWeather, © 2016

See weather overviewHow to use our weather pages